Showing default

COSMOS 1168, 11735

Orbit data source: Space-Track

COSMOS 1168, 11735 is a payload satellite owned by VMF (CIS) in LEO that was launched on Mon, 17 Mar 1980 UTC via a KOSMOS 11K65M launch vehicle from the Plesetsk Missile And Space Complex (PKMTR). Payloads include a variety of satellites, spacecraft, and rockets equipped with specific instruments for various scientific and technological missions. These include communications satellites like Starlink; space stations such as the ISS; scientific satellites like the Hubble; Earth observation satellites from companies like Planet Labs, Umbra, and HawkEye 360; GPS; miniature CubeSats for education and research; and military/defense satellites.

Loading next visibility...
COSMOS 1168 details
Identifier
11735, 1980-022A
Orbit
LEO
Last TLE update4 hours ago
Origin
Flag of CISVMF (CIS)
ManufacturerOmsk Av. Zav.
MissionCivil Navigation
Bus & MotorKAUR-1 11F643, Unknown motor
Mass800 kg wet, 800 kg dry
Launch date (UTC)
1980-03-17 (45 years ago)
Launch vehicle
KOSMOS 11K65M
Launch site
Plesetsk Missile And Space Complex (PKMTR)
Object type
Payload
Rocket body
Debris
Shape & HBRCyl, 5 m
Radar Cross Section9.978 m², Large (>1 m²)

Expand to show TLE details & history

TLE from 4 hours ago
0 COSMOS 1168
1 11735U 80022A   25018.77448921  .00000125  00000-0  11412-3 0  9997
2 11735  82.9477 295.4416 0035576 358.5380  54.6737 13.75183765249705
Epoch: 2025-01-18T18:35Z
Definitive object data (Epoch: 2025-01-18T18:35:15.867Z)
Latitude53.06012°
Longitude-92.37328°
Altitude974.597 km
Speed7.377 km/s
True Right ascension20h 19m 26s
True Declination52° 53' 59"
Sunlit
Object was in daylight at TLE epoch
Visualization TLE readout
Latitude-16.6847°
Longitude80.1913°
Altitude1,012.378 km
Speed7.332 km/s
Apparent Right ascension09h 22m 10s
Apparent Declination-30° 22' 27"
Sunlit
Object is in full shadow
Visualization observer readout
Local Sidereal Time23:40:28
Azimuth82.094° E
Elevation-60.376°
Doppler factor1
Orbital elements
Apogee altitude1,004.338 km
Perigee altitude951.997 km
Semi-major axis7,356.304 km
Eccentricity0.0035576
Inclination82.9477°
RAAN295.4416°
Arg. of periapsis358.538°
True anomaly55.00716°
Mean anomaly54.6737°
Eccentric anomaly54.84035°
Mean motion3.43996 °/min
BSTAR0.00011412
Orbital period104.65 mins
Loading maneuver chart data...
Loading historical data...
Loading historical data...
Loading historical data...
Loading historical data...
Loading historical data...
Loading historical data...
Loading historical data...
Other satellites on launch #22 in the year 1980 (1980-03-17 UTC)

COSMOS 1168 Visibility forecast

Observer location: undefined°, undefined

Span
Click to sort rows by Start time (UTC) header in descending order
Start Az.
Max El. time (UTC)
Max El. Az.
Max El.
End time (UTC)
End Az.
10 mins2025-01-19 05:23:34.854Z14.66° NNE2025-01-19 05:28:34.854Z77.591° E29.816°2025-01-19 05:33:34.854Z136.889° SSE
9 mins2025-01-19 07:09:34.854Z327.973° NNW2025-01-19 07:13:34.854Z277.975° WNW29.475°2025-01-19 07:18:34.854Z214.32° SW
10 mins2025-01-19 18:53:34.854Z179.518° S2025-01-19 18:58:34.854Z50.215° ENE44.118°2025-01-19 19:03:34.854Z9.872° NNE
5 mins2025-01-19 20:42:34.854Z273.669° WNW2025-01-19 20:44:34.854Z294.962° NW14.165°2025-01-19 20:47:34.854Z324.832° NNW
|